Location: Maccacari
(45.1333°N, 11.1333°E)
Time: 07:55:01
(UTC+00:00)

ARIANE 5 R/B - Pass Details

Date: 18 September 2020
Orbit: 620 x 657 km, 98.2° (Epoch: 23 October)

Event Time Altitude Azimuth Distance (km) Brightness Sun altitude
Exits shadow 19:37:43 31° 32° (NNE) 1,106 3.8 -24.0°
Drops below altitude 10° 19:40:29 10° 2° (N) 2,002 5.5 -24.5°
Sets 19:42:47 0° 354° (N) 2,911 6.5 -24.8°
